User: anonymous   Login
Location: Austin
(30.3000°N, 97.7500°W)
Time: 16:58:15
(UTC-05:00)
Language:

Cosmos 1553 Rocket - Orbit

View from above orbital plane
View from above orbital plane
View from above satellite
View from above satellite

Ground track
Ground track

The orbit data is extracted from the following two-line orbital elements,

1 14974U 84046B   24197.57142442 -.00000001  00000-0 -15931-4 0  9995
2 14974  82.9353  18.8039 0044270 327.2315  90.9753 13.77059912 17696
Epoch (UTC): 15 July 2024 13:42:51
Eccentricity: 0.0044270
inclination: 82.9353°
perigee height: 942 km
apogee height: 1007 km
right ascension of ascending node: 18.8039°
argument of perigee: 327.2315°
revolutions per day: 13.77059912
mean anomaly at epoch: 90.9753°
orbit number at epoch: 1769

The dashed part of the orbit path shows where the satellite is in the earth's shadow,  

DLR